• In Hungary
  • List of Countries
  • For 7 days
  • Water Temperature
  • Satellite Maps
  • Weather Map
  • News
  • Weather Widgets
  • user-avatar
    Login

    Hourly Weather Novyy Zagan

    Today, 22 June, Friday

    Time Temperature Precipitation Wind Pressure Humidity
    00:00 +16°C° 0 mm 1 mps 693 mmHg 92%
    01:00 +16°C° 0 mm 1 mps 693 mmHg 94%
    02:00 +15°C° 0 mm 1 mps 693 mmHg 94%
    03:00 +15°C° 0 mm 1 mps 693 mmHg 95%
    04:00 +15°C° 0 mm 1 mps 693 mmHg 95%
    05:00 +18°C° 0 mm 1 mps 693 mmHg 87%
    06:00 +20°C° 0 mm 1 mps 693 mmHg 79%
    07:00 +22°C° 0 mm 1 mps 694 mmHg 70%
    08:00 +24°C° 0 mm 2 mps 694 mmHg 62%
    09:00 +26°C° 0 mm 2 mps 694 mmHg 54%
    10:00 +28°C° 0 mm 2 mps 694 mmHg 47%
    11:00 +29°C° 0 mm 3 mps 694 mmHg 42%
    12:00 +30°C° 0 mm 3 mps 694 mmHg 38%
    13:00 +31°C° 0 mm 3 mps 694 mmHg 35%
    14:00 +30°C° 0 mm 4 mps 693 mmHg 37%
    15:00 +29°C° 0 mm 4 mps 693 mmHg 39%
    16:00 +29°C° 0 mm 4 mps 693 mmHg 41%
    17:00 +27°C° 0.1 mm 4 mps 693 mmHg 48%
    18:00 +25°C° 0.1 mm 4 mps 693 mmHg 55%
    19:00 +22°C° 0.1 mm 4 mps 693 mmHg 62%
    20:00 +21°C° 0.9 mm 3 mps 693 mmHg 71%
    21:00 +19°C° 0.9 mm 3 mps 694 mmHg 81%
    22:00 +17°C° 0.9 mm 2 mps 694 mmHg 91%
    23:00 +17°C° 1 mm 2 mps 694 mmHg 92%

    Tomorrow, 23 June, Saturday

    Time Temperature Precipitation Wind Pressure Humidity
    00:00 +17°C° 1 mm 2 mps 694 mmHg 93%
    01:00 +16°C° 1 mm 2 mps 694 mmHg 94%
    02:00 +16°C° 0.4 mm 2 mps 694 mmHg 94%
    03:00 +16°C° 0.4 mm 2 mps 695 mmHg 94%
    04:00 +16°C° 0.4 mm 2 mps 695 mmHg 95%
    05:00 +16°C° 0.2 mm 2 mps 695 mmHg 94%
    06:00 +16°C° 0.2 mm 2 mps 695 mmHg 93%
    07:00 +16°C° 0.2 mm 2 mps 695 mmHg 92%
    08:00 +17°C° 0.1 mm 2 mps 695 mmHg 86%
    09:00 +18°C° 0.1 mm 3 mps 695 mmHg 79%
    10:00 +20°C° 0.1 mm 3 mps 695 mmHg 73%
    11:00 +21°C° 0.1 mm 3 mps 695 mmHg 64%
    12:00 +23°C° 0.1 mm 4 mps 695 mmHg 54%
    13:00 +25°C° 0.1 mm 4 mps 695 mmHg 45%
    14:00 +25°C° 0 mm 4 mps 695 mmHg 43%
    15:00 +26°C° 0 mm 4 mps 695 mmHg 41%
    16:00 +26°C° 0 mm 4 mps 695 mmHg 38%
    17:00 +23°C° 0 mm 4 mps 694 mmHg 43%
    18:00 +22°C° 0 mm 3 mps 694 mmHg 47%
    19:00 +21°C° 0 mm 2 mps 694 mmHg 52%
    20:00 +19°C° 0 mm 2 mps 694 mmHg 56%
    21:00 +17°C° 0 mm 2 mps 694 mmHg 61%
    22:00 +16°C° 0 mm 1 mps 694 mmHg 66%
    23:00 +15°C° 0 mm 1 mps 693 mmHg 69%

    Day after tomorrow, 24 June, Sunday

    Time Temperature Precipitation Wind Pressure Humidity
    00:00 +15°C° 0 mm 1 mps 693 mmHg 71%
    01:00 +14°C° 0 mm 1 mps 693 mmHg 74%
    02:00 +14°C° 0 mm 1 mps 693 mmHg 76%
    03:00 +13°C° 0 mm 1 mps 693 mmHg 79%
    04:00 +13°C° 0 mm 1 mps 693 mmHg 81%
    05:00 +15°C° 0 mm 1 mps 693 mmHg 73%
    06:00 +17°C° 0 mm 2 mps 693 mmHg 65%
    07:00 +19°C° 0 mm 3 mps 693 mmHg 57%
    08:00 +21°C° 0 mm 4 mps 693 mmHg 51%
    09:00 +22°C° 0 mm 5 mps 693 mmHg 45%
    10:00 +24°C° 0 mm 6 mps 693 mmHg 38%
    11:00 +24°C° 0 mm 6 mps 693 mmHg 37%
    12:00 +26°C° 0 mm 6 mps 693 mmHg 35%
    13:00 +27°C° 0 mm 6 mps 693 mmHg 33%
    14:00 +26°C° 0 mm 6 mps 693 mmHg 34%
    15:00 +26°C° 0 mm 6 mps 693 mmHg 35%
    16:00 +26°C° 0 mm 6 mps 693 mmHg 36%
    17:00 +25°C° 0 mm 5 mps 693 mmHg 41%
    18:00 +22°C° 0 mm 4 mps 693 mmHg 46%
    19:00 +21°C° 0 mm 3 mps 693 mmHg 51%
    20:00 +19°C° 0.4 mm 3 mps 693 mmHg 61%
    21:00 +17°C° 0.4 mm 2 mps 693 mmHg 71%
    22:00 +16°C° 0.4 mm 2 mps 692 mmHg 81%
    23:00 +15°C° 0.3 mm 2 mps 692 mmHg 84%

    25 June, Monday

    Time Temperature Precipitation Wind Pressure Humidity
    00:00 +15°C° 0.3 mm 2 mps 692 mmHg 87%
    01:00 +14°C° 0.3 mm 2 mps 692 mmHg 90%
    02:00 +14°C° 0 mm 2 mps 692 mmHg 91%
    03:00 +14°C° 0 mm 2 mps 692 mmHg 92%
    04:00 +13°C° 0 mm 2 mps 692 mmHg 93%
    05:00 +14°C° 0.1 mm 2 mps 692 mmHg 91%
    06:00 +14°C° 0.1 mm 3 mps 692 mmHg 88%
    07:00 +16°C° 0.1 mm 3 mps 692 mmHg 85%
    08:00 +18°C° 0.2 mm 4 mps 692 mmHg 78%
    09:00 +20°C° 0.2 mm 5 mps 692 mmHg 70%
    10:00 +21°C° 0.2 mm 6 mps 692 mmHg 63%
    11:00 +22°C° 0.6 mm 6 mps 692 mmHg 61%
    12:00 +23°C° 0.6 mm 6 mps 692 mmHg 60%
    13:00 +23°C° 0.6 mm 7 mps 692 mmHg 59%
    14:00 +22°C° 0.6 mm 6 mps 692 mmHg 62%
    15:00 +21°C° 0.6 mm 6 mps 692 mmHg 65%
    16:00 +21°C° 0.6 mm 5 mps 693 mmHg 67%
    17:00 +19°C° 0.3 mm 4 mps 693 mmHg 72%
    18:00 +18°C° 0.3 mm 4 mps 693 mmHg 76%
    19:00 +17°C° 0.3 mm 3 mps 693 mmHg 80%
    20:00 +16°C° 0.1 mm 2 mps 694 mmHg 84%
    21:00 +15°C° 0.1 mm 2 mps 694 mmHg 87%
    22:00 +15°C° 0.1 mm 2 mps 694 mmHg 91%
    23:00 +14°C° 0 mm 2 mps 694 mmHg 92%

    26 June, Tuesday

    Time Temperature Precipitation Wind Pressure Humidity
    00:00 +14°C° 0 mm 1 mps 694 mmHg 93%
    01:00 +14°C° 0 mm 1 mps 695 mmHg 94%
    02:00 +13°C° 0 mm 1 mps 695 mmHg 95%
    03:00 +13°C° 0 mm 1 mps 695 mmHg 95%
    04:00 +13°C° 0 mm 1 mps 695 mmHg 96%
    05:00 +14°C° 0 mm 1 mps 696 mmHg 89%
    06:00 +16°C° 0 mm 1 mps 696 mmHg 83%
    07:00 +18°C° 0 mm 2 mps 697 mmHg 76%
    08:00 +20°C° 0 mm 2 mps 697 mmHg 66%
    09:00 +22°C° 0 mm 3 mps 697 mmHg 55%
    10:00 +25°C° 0 mm 3 mps 697 mmHg 45%
    11:00 +25°C° 0 mm 3 mps 697 mmHg 44%
    12:00 +26°C° 0 mm 3 mps 697 mmHg 43%
    13:00 +26°C° 0 mm 2 mps 697 mmHg 42%
    14:00 +27°C° 0 mm 3 mps 697 mmHg 43%
    15:00 +27°C° 0 mm 3 mps 697 mmHg 43%
    16:00 +27°C° 0 mm 3 mps 697 mmHg 43%
    17:00 +26°C° 0 mm 2 mps 697 mmHg 47%
    18:00 +25°C° 0 mm 2 mps 697 mmHg 50%
    19:00 +24°C° 0 mm 2 mps 697 mmHg 54%
    20:00 +22°C° 0 mm 1 mps 697 mmHg 60%
    21:00 +20°C° 0 mm 1 mps 697 mmHg 66%
    22:00 +18°C° 0 mm 1 mps 696 mmHg 72%
    23:00 +16°C° 0 mm 1 mps 696 mmHg 75%

    27 June, Wednesday

    Time Temperature Precipitation Wind Pressure Humidity
    00:00 +14°C° 0 mm 0 mps 696 mmHg 78%
    01:00 +14°C° 0 mm 0 mps 696 mmHg 81%
    02:00 +13°C° 0 mm 0 mps 696 mmHg 82%
    03:00 +13°C° 0 mm 0 mps 696 mmHg 83%
    04:00 +13°C° 0 mm 0 mps 696 mmHg 84%
    05:00 +18°C° 0 mm 1 mps 696 mmHg 75%
    06:00 +20°C° 0 mm 1 mps 697 mmHg 65%
    07:00 +23°C° 0 mm 1 mps 697 mmHg 55%
    08:00 +25°C° 0 mm 1 mps 697 mmHg 50%
    09:00 +27°C° 0 mm 2 mps 697 mmHg 44%
    10:00 +28°C° 0 mm 2 mps 696 mmHg 38%
    11:00 +29°C° 0 mm 3 mps 696 mmHg 36%
    12:00 +30°C° 0 mm 3 mps 696 mmHg 34%
    13:00 +30°C° 0 mm 3 mps 695 mmHg 32%
    14:00 +30°C° 0 mm 3 mps 695 mmHg 31%
    15:00 +31°C° 0 mm 3 mps 695 mmHg 31%
    16:00 +31°C° 0 mm 3 mps 694 mmHg 30%
    17:00 +29°C° 0 mm 2 mps 694 mmHg 36%
    18:00 +28°C° 0 mm 2 mps 694 mmHg 41%
    19:00 +26°C° 0 mm 1 mps 694 mmHg 46%
    20:00 +24°C° 0 mm 1 mps 693 mmHg 50%
    21:00 +22°C° 0 mm 1 mps 693 mmHg 55%
    22:00 +20°C° 0 mm 1 mps 693 mmHg 59%
    23:00 +19°C° 0 mm 1 mps 693 mmHg 61%
    Show more